Погода в Назарове

Россия / Ханты-Мансийский автономный округ - Югра     60°17′43″N   64°17′54″E
темп.,
°C
ветер,
м/с
пор.,
м/с
влажн.,
%
обл.,
%
осадки,
мм/ч
давл.,
гПа
погр.,
м
8 марта, пн
пн823:00−17всв1298100 0.1 100620
02:00−19с1210089 0.0 100520
05:00−22ссз2210089 0.1 100520
08:00−23сз1110090 0.0 100520
11:00−17з119378 0.0 1005207
14:00−14ююз028697 0.0 1005494
17:00−14в239499 0.1 1005171
20:00−17в2396100 0.1 100567
9 марта, вт
вт923:00−16в3497100 0.1 1004113
02:00−16всв3597100 0.2 1003140
05:00−16всв3697100 0.4 1002171
08:00−16св4796100 0.4 1002248
11:00−15св4695100 0.6 1003271
14:00−14ссв3594100 0.4 1004341
17:00−14с3693100 0.7 1005393
20:00−19ссз239979 0.0 100820
10 марта, ср
ср1023:00−22ссз2210068 0.0 101020
02:00−24ссз1210062 0.0 101120
05:00−26ссв1110064 0.0 101219
08:00−26ссв129893 0.0 101219
11:00−22ссв239597 0.1 1012234
14:00−19ссв3393100 0.1 1012350
17:00−20ссв2495100 0.1 1010278
20:00−25ссв239742 0.0 101020
11 марта, чт
чт1123:00−27с239740 0.0 101020
02:00−28ссв239987 0.0 100927
05:00−30ссв239982 0.0 100927
08:00−29ссв249756 0.0 101088
11:00−25ссв359678 0.1 1010273
14:00−22ссв4694100 0.1 1011472
17:00−22ссв4793100 0.2 1011585
20:00−23с3697100 0.1 1013215
12 марта, пт
пт1223:00−28с349580 0.1 101449
02:00−30с33960 0.0 101429
05:00−32ссз23970 0.0 101519
08:00−32зсз22960 0.0 101619
11:00−24зюз238821 0.0 1016232
14:00−18юз358256 0.0 1015425
17:00−16юз378637 0.0 1014458
20:00−20ююз35947 0.0 101577